Regional Weather Roundup
Issued by NWS

Home | Current Version | Previous Version | Graphics & Text | Print | Product List | Glossary On
Versions: 1 2 3 4 5 6 7 8 9 10 11 12 13 14 15 16 17 18 19 20 21 22 23 24 25 26 27 28 29 30 31 32 33 34 35 36 37 38 39 40 41 42 43 44 45 46 47 48 49 50
348
ASUS45 KPSR 250710
RWRAZ

ARIZONA HOURLY REGIONAL WEATHER ROUNDUP
NATIONAL WEATHER SERVICE PHOENIX AZ
1200 AM MST TUE JUL 25 2017

NOTE: FAIR INDICATES FEW OR NO CLOUDS BELOW 12,000 FEET WITH NO
SIGNIFICANT WEATHER AND/OR OBSTRUCTIONS TO VISIBILITY.

AZZ001>003-036-250800-
NORTHWEST ARIZONA

CITY           SKY/WX    TMP DP  RH WIND       PRES   REMARKS
KINGMAN        FAIR      73  68  84 SW7       30.03S
$$

AZZ004>008-015-016-018-250800-
NORTH CENTRAL ARIZONA

CITY           SKY/WX    TMP DP  RH WIND       PRES   REMARKS
GRAND CANYON   LGT RAIN  61  61 100 W3        30.26R
WILLIAMS       CLOUDY    63  59  88 CALM      30.26S
PRESCOTT       FAIR      67  65  93 S3        30.16R
FLAGSTAFF      CLOUDY    60  60 100 S7        30.29S
PAYSON         FAIR      66  64  94 CALM      30.21S
PAGE           MOCLDY    78  58  49 N6        30.06R
$$

AZZ009>014-017-250800-
NORTHEAST ARIZONA

CITY           SKY/WX    TMP DP  RH WIND       PRES   REMARKS
WINSLOW        FAIR      67  64  90 E5        30.15S
SAINT JOHNS    FAIR      64  63  96 CALM      30.20R
WINDOW ROCK    LGT RAIN  63  59  87 CALM      30.27S
SHOW LOW       FAIR      57  55  94 S8        30.27S
$$

AZZ540-542>544-546-548-250800-
GREATER PHOENIX AREA

CITY           SKY/WX    TMP DP  RH WIND       PRES   REMARKS
PHOENIX        MOCLDY    86  71  60 SE7       29.89R
BUCKEYE        CLOUDY    81  79  94 CALM      29.90R
LUKE AFB       MOCLDY    83  75  76 NW5       29.89R
DEER VALLEY    FAIR      83  73  72 CALM      29.91R
SCOTTSDALE     FAIR      83  71  67 CALM      29.93R
MESA-GATEWAY   MOCLDY    81  75  83 SE5       29.92S
$$

AZZ539-553-250800-
SOUTHWEST MARICOPA COUNTY AND PINAL COUNTY

CITY           SKY/WX    TMP DP  RH WIND       PRES   REMARKS
CASA GRANDE    FAIR      82  72  71 E10       29.93R
GILA BEND      CLOUDY    80  74  81 S6        29.87R
$$

AZZ503-504-507>509-250800-
SOUTHEAST ARIZONA

CITY           SKY/WX    TMP DP  RH WIND       PRES   REMARKS
TUCSON         FAIR      77  71  82 SE8       30.02S
DAVIS-MONTHAN  FAIR      75  72  91 SE8       30.01S
NOGALES        FAIR      70  68  93 NE5       30.11R
SIERRA VISTA   FAIR      69  65  86 CALM      30.17S
DOUGLAS        FAIR      69  67  93 N5        30.12F
SAFFORD        FAIR      73  71  93 SE5       30.05R
$$

AZZ532-250800-
SOUTHWEST ARIZONA

CITY           SKY/WX    TMP DP  RH WIND       PRES   REMARKS
YUMA           FAIR      92  63  38 E6        29.80R
$$

CAZ041-043-047-048-061-525>527-560>570-250800-
SOUTHERN CALIFORNIA

CITY           SKY/WX    TMP DP  RH WIND       PRES   REMARKS
DOWNTOWN L.A.  FAIR      69  64  84 W3        29.94R
L.A. AIRPORT   MOCLDY    68  64  87 W7        29.94R
SAN DIEGO      MOCLDY    71  63  75 VRB3      29.96F
BURBANK        FAIR      69  62  78 S5        29.94R
ONTARIO        MOCLDY    71  60  68 W9        29.95R
RIVERSIDE      FAIR      71  63  75 W6        29.95R
PALM SPRINGS   FAIR      89  60  37 NW12      29.84R
EL CENTRO NAS  FAIR      87  65  47 SE9       29.79R
IMPERIAL       FAIR      90  66  45 SE9       29.76R
BLYTHE         MOCLDY    89  72  56 S5        29.81S
NEEDLES        MOCLDY    92  68  45 SW6       29.85R
$$

NVZ020-UTZ003-250800-
SOUTHERN NEVADA-UTAH

CITY           SKY/WX    TMP DP  RH WIND       PRES   REMARKS
LAS VEGAS      CLOUDY    85  65  51 S8        29.90R
SALT LAKE CITY CLOUDY    76  60  57 S17G23    30.08R
$$

NMZ009-TXZ055-250800-
NEW MEXICO-WEST TEXAS

CITY           SKY/WX    TMP DP  RH WIND       PRES   REMARKS
ALBUQUERQUE    MOCLDY    75  57  53 SE5       30.17S
EL PASO        MOCLDY    76  66  71 SW17      30.12R
$$


........................KEY........................
SKY/WX - SKY CONDITION/WEATHER
TMP    - TEMPERATURE IN FAHRENHEIT
DP     - DEW POINT IN FAHRENHEIT
RH     - RELATIVE HUMIDITY IN PERCENT
WIND   - DIRECTION AND SPEED IN MILES PER HOUR (MPH)
VRB    - VARIABLE WIND DIRECTION
PRES   - MEAN SEA LEVEL PRESSURE IN INCHES OF MERCURY
         F - FALLING PRESSURE   R - RISING PRESSURE
         S - STEADY PRESSURE
VSB    - VISIBILITY IN MILES
HX     - HEAT INDEX IN FAHRENHEIT
WCI    - WIND CHILL INDEX IN FAHRENHEIT
TC     - TEMPERATURE IN CELSIUS WHICH IS ALSO KNOWN AS
         TEMPERATURE IN CENTIGRADE
AFB    - AIR FORCE BASE
         LUKE AFB IS LUKE AIR FORCE BASE
         DAVIS-MONTHAN IS DAVIS-MONTHAN AIR FORCE BASE
NAS    - NAVAL AIR STATION
         EL CENTRO NAS IS EL CENTRO NAVAL AIR STATION
N/A    - NOT AVAILABLE





USA.gov is the U.S. government's official web portal to all federal, state and local government web resources and services.